Regional Weather Roundup
Issued by NWS Goodland, KS

Home | Current Version | Previous Version | Graphics & Text | Print | Product List | Glossary On
Versions: 1 2 3 4 5 6 7 8 9 10 11 12 13 14 15 16 17 18 19 20 21 22 23 24 25 26 27 28 29 30 31 32 33 34 35 36 37 38 39 40 41 42 43 44 45 46 47 48 49 50
000
ASUS43 KGLD 061408
RWRGLD

GOODLAND FORECAST AREA HOURLY WEATHER ROUNDUP
NATIONAL WEATHER SERVICE GOODLAND KS
800 AM MDT MON JUL 06 2015

...OFFICIAL OBSERVATIONS...

CITY           SKY/WX    TMP DP  RH WIND       PRES   REMARKS
GOODLAND KS    CLOUDY    65  61  87 N23G31    30.05R
HILL CITY KS   LGT RAIN  72  68  87 N16       29.92R
IMPERIAL NEB   CLOUDY    64  60  87 N20G26    30.08R
MCCOOK NEB     CLOUDY    67  63  87 N18       29.99R
AKRON CO       LGT RAIN  59  59 100 N14       30.18R FOG
BURLINGTON CO  CLOUDY    64  60  87 N22G29    30.10R
LIMON CO       CLOUDY    60  59  96 N20       30.19R FOG
$$

...UNOFFICIAL OBSERVATIONS...

CITY           SKY/WX    TMP DP  RH WIND       PRES   REMARKS
COLBY KS       CLOUDY    66  66 100 N22       30.03R
GOVE KS          N/A     72  32  23 MISG        N/A
NORTON KS      LGT RAIN  68  64  88 N17G24    29.93S
SHARON SPRINGS   N/A     67  62  84 N16G28      N/A
KIT CARSON CO    N/A     66  61  85 MISG        N/A
YUMA CO          N/A     62  60  94 N10G20      N/A
$$



USA.gov is the U.S. government's official web portal to all federal, state and local government web resources and services.